FYWHHTZA

Guest
Details From FYWH - Windhoek Hosea Kutako Intl
To HTZA - Zanzibar
Flight Number -
Tags Generated
Created
Modified
Stats Distance 1,595 nm / 2,953 km
Max Altitude 0 ft / 0 m
Waypoints 3
Social Downloads 1
Likes 0
Share VATSIM

Download

Looking for another format? Having issues loading an existing format? Contact us
Advertisement - Login to hide

Notes

Generated

Route

FYWH AVEKA HTZA

ID Type Via Altitude Latitude Longitude Leg Dist Tot Dist Heading (true) Name
O FYWH APT - 0 ft / 0 m -22.47768˚ 17.46905˚ - 0 nm - Windhoek Hosea Kutako Intl
AVEKA FIX - 0 ft / 0 m -13.41667˚ 30.03333˚ 899 nm 899 nm 55° / 51° -
O HTZA APT - 0 ft / 0 m -6.21098˚ 39.22377˚ 694 nm 1594 nm 52° / 51° -

Altitude Profile

Advertisement - Login to hide

Weather


0- 5 10 15 20 25 30 35+ Temperature / ° C

Clouds and Precipitation
Forecast for 2018-05-25 12:00 UTC. Updated 6 hours ago

Ground ~20,000 ft ~40,000 ft Winds

FYWH

Details ICAO FYWH
Name Windhoek Hosea Kutako Intl
Region Namibia
Timezone Africa/Windhoek (UTC+2.0)
Stats Elevation 5,640 ft / 1,719 m (AMSL)
Location -22.481811° 17.471569°
Runways 2
Magnetic Variation 11.968° W

METAR

FYWH 251700Z 00000KT CAVOK 15/01 Q1023 NOSIG

Decode

TAF

Not found

Departure Runways

ID Width Length Bearing (true) Bearing (mag) Surface Threshold Offset Overrun Length
08 148 ft / 45 m 15,003 ft / 4,573 m 63.51° 75.48° Asphalt 0 ft / 0 m 345 ft / 105 m
16 98 ft / 30 m 5,010 ft / 1,527 m 141.33° 153.30° Asphalt 0 ft / 0 m 38 ft / 12 m
26 148 ft / 45 m 15,003 ft / 4,573 m 243.49° 255.46° Asphalt 0 ft / 0 m 84 ft / 26 m
34 98 ft / 30 m 5,010 ft / 1,527 m 321.32° 333.29° Asphalt 0 ft / 0 m 38 ft / 12 m

HTZA

Details ICAO HTZA (ZNZ)
Name ZANZIBAR
Region Tanzania
Timezone Africa/Dar_es_Salaam (UTC+3.0)
Stats Elevation 54 ft / 16 m (AMSL)
Location -6.222024° 39.224885°
Runways 1
Magnetic Variation 1.805° W

METAR

HTZA 251600Z 14005KT 9999 SCT018 27/23 Q1013 NOSIG

Decode

TAF

HTZA 251100Z 2512/2612 16010KT SCT020 FEW022CB SCT080 BECMG 2601/2603 22010KT BKN018 FEW020CB BKB080 PROB30 TEMPO 2606/2610 TSRA

Decode

Destination Runways

ID Width Length Bearing (true) Bearing (mag) Surface Threshold Offset Overrun Length
18 148 ft / 45 m 8,100 ft / 2,469 m 174.27° 176.08° Asphalt 0 ft / 0 m 0 ft / 0 m
36 148 ft / 45 m 8,100 ft / 2,469 m 354.27° 356.08° Asphalt 0 ft / 0 m 0 ft / 0 m